Location: Arboyeti
(42.1122°N, 44.6017°E)
Time: 04:46:52
(UTC+00:00)

Cosmos 1812 Rocket - Pass Details

Date: 19 April 2021
Orbit: 606 x 631 km, 82.5° (Epoch: 09 May)

Event Time Altitude Azimuth Distance (km) Brightness Sun altitude
Exits shadow 17:49:58 31° 192° (SSW) 1,097 4.6 -20.9°
Maximum altitude 17:52:04 83° 277° (W) 637 3.5 -21.2°
Drops below altitude 10° 17:56:33 10° 7° (N) 2,017 6.6 -21.8°
Sets 17:58:48 0° 8° (N) 2,932 7.5 -22.1°
